Weather in Gornozavodskoe

Russia / Stavropol Krai     44°01′34″N   43°56′34″E
temp.,
°C
wind,
m/s
gust,
m/s
humid.,
%
clouds,
%
prec.,
mm/h
press.,
hPa
HPBL,
m
26 may, thu
thu2600:00+10wsw22745 0.0 102111
03:00+9wnw33755 0.0 102126
06:00+11w237535 0.0 1022104
09:00+17nw22575 0.0 1021770
12:00+20nnw124695 0.0 10212140
15:00+21nne124526 0.0 10201870
18:00+19ene225958 0.0 101935
21:00+13ese226885 0.0 102012
27 may, fri
fri2700:00+12sse227511 0.0 101919
03:00+11ssw2282100 0.0 101916
06:00+13sw238011 0.0 101984
09:00+19wnw22584 0.0 1019616
12:00+23nw11500 0.0 10181504
15:00+24nnw324822 0.0 10171914
18:00+21n366096 0.0 1018159
21:00+18nnw3660100 0.0 1019143
28 may, sat
sat2800:00+17nnw2270100 0.0 101929
03:00+16sse117299 0.0 101811
06:00+16sse23780 0.0 101897
09:00+20ese34590 0.0 1017771
12:00+24ese46512 0.0 10161582
15:00+25ese45459 0.0 10141868
18:00+24ese24590 0.0 1014113
21:00+17e47640 0.0 101598
29 may, sun
sun2900:00+14ese33720 0.0 101428
03:00+12ene11810 0.0 101410
06:00+15e11771 0.0 101471
09:00+21ne11592 0.0 1014466
12:00+25nne11520 0.0 1014923
15:00+27n22480 0.0 10141350
18:00+26n22605 0.0 101572
21:00+20n115998 0.0 101611
30 may, mon
mon3000:00+18wsw227012 0.0 101516
03:00+17wnw11825 0.0 101511
06:00+19sw12802 0.0 101653
09:00+25se11610 0.0 1016549
12:00+28ese34500 0.0 10141318
15:00+29ese45440 0.0 10131680
18:00+28sse22574 0.0 101250
21:00+22e11655 0.0 101212